TimeCST,TemperatureF,Dew PointF,Humidity,Sea Level PressureIn,VisibilityMPH,Wind Direction,Wind SpeedMPH,Gust SpeedMPH,PrecipitationIn,Events,Conditions,WindDirDegrees,DateUTC
12:56 AM,34.9,34.9,100,30.30,6.0,Calm,Calm,-,N/A,,Clear,0,2012-12-01 06:56:00
1:56 AM,36.0,36.0,100,30.30,5.0,Calm,Calm,-,N/A,,Clear,0,2012-12-01 07:56:00
3:19 AM,35.6,35.6,100,30.29,2.5,Calm,Calm,-,N/A,,Clear,0,2012-12-01 09:19:00
3:31 AM,33.8,33.8,100,30.30,6.0,Calm,Calm,-,N/A,,Clear,0,2012-12-01 09:31:00
3:56 AM,34.0,34.0,100,30.33,6.0,Calm,Calm,-,N/A,,Clear,0,2012-12-01 09:56:00
4:37 AM,35.6,35.6,100,30.31,2.0,Calm,Calm,-,N/A,,Clear,0,2012-12-01 10:37:00
4:56 AM,36.9,36.9,100,30.34,1.8,Calm,Calm,-,N/A,,Clear,0,2012-12-01 10:56:00
5:08 AM,35.6,35.6,100,30.31,2.0,Calm,Calm,-,N/A,,Clear,0,2012-12-01 11:08:00
5:17 AM,35.6,35.6,100,30.32,1.8,Calm,Calm,-,N/A,,Clear,0,2012-12-01 11:17:00
5:27 AM,35.6,35.6,100,30.31,1.0,Calm,Calm,-,N/A,,Clear,0,2012-12-01 11:27:00
5:29 AM,35.6,35.6,100,30.31,0.5,Calm,Calm,-,N/A,Fog,Fog,0,2012-12-01 11:29:00
5:38 AM,33.8,33.8,100,30.32,0.2,Calm,Calm,-,N/A,Fog,Fog,0,2012-12-01 11:38:00
5:49 AM,33.8,33.8,100,30.32,0.2,Calm,Calm,-,N/A,Fog,Fog,0,2012-12-01 11:49:00
6:56 AM,31.1,31.1,100,30.38,0.2,Calm,Calm,-,N/A,Fog,Light Freezing Fog,0,2012-12-01 12:56:00
7:09 AM,30.2,30.2,100,30.34,0.2,Calm,Calm,-,N/A,Fog,Light Freezing Fog,0,2012-12-01 13:09:00
7:11 AM,30.2,30.2,100,30.34,0.2,Calm,Calm,-,N/A,Fog,Light Freezing Fog,0,2012-12-01 13:11:00
7:15 AM,30.2,30.2,100,30.34,0.5,Calm,Calm,-,N/A,Fog,Light Freezing Fog,0,2012-12-01 13:15:00
7:18 AM,30.2,30.2,100,30.34,1.2,Calm,Calm,-,N/A,,Mostly Cloudy,0,2012-12-01 13:18:00
7:22 AM,32.0,32.0,100,30.34,0.5,Calm,Calm,-,N/A,Fog,Fog,0,2012-12-01 13:22:00
7:29 AM,33.8,33.8,100,30.34,0.2,Calm,Calm,-,N/A,Fog,Fog,0,2012-12-01 13:29:00
7:37 AM,33.8,33.8,100,30.34,0.2,Calm,Calm,-,N/A,Fog,Fog,0,2012-12-01 13:37:00
8:03 AM,39.2,39.2,100,30.34,1.0,Calm,Calm,-,N/A,,Clear,0,2012-12-01 14:03:00
8:05 AM,41.0,41.0,100,30.34,1.5,Calm,Calm,-,N/A,,Clear,0,2012-12-01 14:05:00
8:10 AM,42.8,42.8,100,30.34,3.0,Calm,Calm,-,N/A,,Clear,0,2012-12-01 14:10:00
8:56 AM,54.9,50.0,84,30.38,10.0,Calm,Calm,-,N/A,,Clear,0,2012-12-01 14:56:00
10:56 AM,61.9,48.9,62,30.34,10.0,SSW,11.5,-,N/A,,Clear,200,2012-12-01 16:56:00
11:56 AM,63.9,46.9,54,30.30,10.0,WSW,6.9,-,N/A,,Clear,240,2012-12-01 17:56:00
12:56 PM,64.9,45.9,50,30.29,10.0,Variable,6.9,-,N/A,,Clear,0,2012-12-01 18:56:00
1:56 PM,64.9,45.9,50,30.27,10.0,Variable,5.8,-,N/A,,Clear,0,2012-12-01 19:56:00
2:56 PM,65.8,43.9,45,30.26,10.0,South,9.2,-,N/A,,Clear,170,2012-12-01 20:56:00
3:56 PM,61.0,45.0,56,30.26,10.0,SSE,5.8,-,N/A,,Clear,150,2012-12-01 21:56:00
4:56 PM,54.9,45.9,72,30.27,10.0,Calm,Calm,-,N/A,,Clear,0,2012-12-01 22:56:00
5:56 PM,56.8,47.8,72,30.28,10.0,SSE,8.1,-,N/A,,Clear,150,2012-12-01 23:56:00
6:56 PM,56.8,46.9,69,30.28,10.0,SSE,4.6,-,N/A,,Clear,160,2012-12-02 00:56:00
7:56 PM,47.8,43.0,83,30.29,10.0,Calm,Calm,-,N/A,,Clear,0,2012-12-02 01:56:00
8:56 PM,56.8,45.9,67,30.27,10.0,South,9.2,-,N/A,,Clear,190,2012-12-02 02:56:00
9:56 PM,56.8,45.9,67,30.27,10.0,South,8.1,-,N/A,,Clear,190,2012-12-02 03:56:00
10:56 PM,57.9,45.9,64,30.27,10.0,South,8.1,-,N/A,,Clear,180,2012-12-02 04:56:00
11:56 PM,57.9,45.0,62,30.27,10.0,South,10.4,-,N/A,,Clear,170,2012-12-02 05:56:00